Location: Newark
(45.5167°N, 11.1667°E)
Time: 14:00:26
(UTC+00:00)

Explorer 7 - Pass Details

Date: 19 December 2019
Orbit: 485 x 679 km, 50.3° (Epoch: 22 January)

Event Time Altitude Azimuth Distance (km) Brightness Sun altitude
Rises 17:14:57 0° 295° (WNW) 3,026 11.4 -16.9°
Reaches altitude 10° 17:17:19 10° 293° (WNW) 2,117 10.5 -17.3°
Maximum altitude 17:22:12 68° 211° (SSW) 731 7.5 -18.1°
Enters shadow 17:25:42 19° 132° (SE) 1,597 8.8 -18.7°
Drops below altitude 10° 17:27:02 10° 129° (SE) 2,090 - -18.9°
Sets 17:29:21 0° 127° (SE) 2,983 - -19.3°
